USA 342

Last updated on Fri Apr 03 2026 00:02:55 GMT+0000 (Coordinated Universal Time)

1 55263U 23008A 26092.25566473 .00000132 00000+0 00000+0 0 9995 2 55263 0.0114 230.5957 0000126 338.8980 96.9531 1.00270632 11756
UTC large
Height (km)
Speed (km/s)
/
Latitude / Longitude
Inclination (degrees)
Orbital Period (minutes)
Azimuth
Elevation
Range (km)
Doppler Factor

Next 0 passes for location: London (51.5072 / 0.1276)

Sorry there are no passes over London.